Welcome to the New NWS' Forecast!
Most changes are behind the scenes, but click here for differences you might notice.
Latest weather observations around

Merkel Field Sylacauga Municipal Airport (KSCD)

Using English Units (Switch to International System of Units)
Date/ Time (CST) Wind (mph) Vis. (mi) Weather Sky Cond. Temp (°F) Rel. Humidity Wind Chill (°F) Heat Index (°F) Pressure Precip. (in)
Air Dwpt 6 hour Altimeter (inHg) Sea level (inHg) 1 hr 3 hr 6 hr
Max Min
Jan 23 11:35 W 10 10 Clear CLR 54 34     47%     30.08        
Jan 23 11:15 WNW 10 10 Clear CLR 54 34     48%     30.09        
Jan 23 10:55 W 13 10 Clear CLR 53 34     48%     30.1        
Jan 23 10:35 WNW 9 10 Clear CLR 52 34     49%     30.1        
Jan 23 10:15 WNW 11 10 Clear CLR 52 34     50%     30.09        
Jan 23 09:55 W 16 10 Clear CLR 51 36     55%     30.09        
Jan 23 09:35 W 9 10 Clear CLR 50 35     58% 46   30.08        
Jan 23 09:15 WNW 9 10 Clear CLR 48 37     64% 44   30.08        
Jan 23 08:55 W 7 10 Clear CLR 47 37     66% 44   30.07        
Jan 23 08:35 W 5 10 Clear CLR 45 37     73% 43   30.07        
Jan 23 08:15 Calm 10 Clear CLR 42 40     91%     30.06        
Jan 23 07:55 Calm 10 Clear CLR 37 37     100%     30.05        
Jan 23 07:35 Calm 10 Clear CLR 34 34     100%     30.04        
Jan 23 07:15 Calm 10 Clear CLR 34 34     100%     30.04        
Jan 23 06:55 Calm 10 Clear CLR 34 34     100%     30.03        
Jan 23 06:35 Calm 10 Clear CLR 36 35     96%     30.02        
Jan 23 06:15 Calm 10 Clear CLR 36 34     92%     30.01        
Jan 23 05:55 Calm 10 Clear CLR 37 36     94%     30        
Jan 23 05:35 Calm 10 Clear CLR 38 36     93%     30        
Jan 23 05:15 Calm 10 Clear CLR 40 35     85%     30        
Jan 23 04:55 Calm 10 Clear CLR 41 36     82%     29.99        
Jan 23 04:35 Calm 10 Clear CLR 42 34     73%     29.99        
Jan 23 04:15 W 6 10 Clear CLR 44 34     69% 40   29.98        
Jan 23 03:55 W 3 10 Clear CLR 45 35     69% 43   29.98        
Jan 23 03:35 W 5 10 Clear CLR 45 35     68% 43   29.98        
Jan 23 03:15 W 7 10 Clear CLR 45 35     68% 42   29.97        
Jan 23 02:55 W 8 10 Clear CLR 47 36     66% 43   29.97        
Notice The following observation data may not be complete
Jan 23 02:35   10 Clear CLR          %              
Jan 23 02:15 W 10 10 Clear CLR 48 38     68% 43   29.96        
Jan 23 01:55 W 6 10 Clear CLR 47 39     73% 45   29.96        
Jan 23 01:40 W 6 10 Clear CLR 50 39     67% 47   29.95        
Jan 23 01:15 WSW 6 10 Clear CLR 48 40     74% 46   29.95        
Jan 23 00:55 W 9 10 Clear CLR 53 40     63%     29.94        
Jan 23 00:35 WSW 7 10 Clear CLR 53 42     65%     29.94        
Jan 23 00:15 W 8 10 Clear CLR 54 43     65%     29.94        
Jan 22 23:55 W 13 10 Clear CLR 56 42     59%     29.94        
Jan 22 23:35 W 15 10 Mostly Cloudy SCT009 SCT018 BKN037 59 53     80%     29.93        
Jan 22 23:15   10 Cloudy BKN011 BKN018 OVC035 61 61     100%     29.92        
Jan 22 22:55 W 8 10 Cloudy BKN011 OVC016 61 61     100%     29.92        
Jan 22 22:35 W 8 10 Cloudy BKN009 OVC013 62 62     100%     29.92        
Jan 22 22:15 WSW 8 10 Cloudy OVC009 63 63     100%     29.92        
Jan 22 21:55 WSW 10 10 Cloudy OVC007 63 63     100%     29.91        
Jan 22 21:35 WSW 6 10 Cloudy OVC007 62 62     100%     29.91        
Jan 22 21:15 WSW 7 10 Mostly Cloudy BKN007 61 61     100%     29.91        
Jan 22 20:55 SW 6 10 Partly Cloudy SCT007 SCT075 61 61     100%     29.9        
Notice The following observation data may not be complete
Jan 22 20:35   10 Mostly Cloudy SCT007 BKN075          %              
Jan 22 20:15 S 6 10 Mostly Cloudy SCT060 BKN075 62 62     100%     29.91        
Jan 22 19:55 SSW 6 10 Cloudy OVC060 62 62     100%     29.91        
Jan 22 19:35 SSE 7 10 Cloudy OVC060 63 63     100%     29.91        
Jan 22 19:15 S 3 10 Cloudy OVC060 62 62     100%     29.9        
Jan 22 18:55 SSE 5 10 Cloudy OVC060 63 63     100%     29.9        
Jan 22 18:35 S 3 10 Cloudy SCT060 OVC065 62 62     100%     29.9        
Jan 22 18:15 Calm 10 Cloudy SCT042 BKN060 OVC065 62 62     100%     29.9        
Jan 22 17:55 Calm 10 Cloudy BKN044 OVC060 62 62     100%     29.9       0
Jan 22 17:35 Calm 10 Cloudy SCT008 BKN046 OVC060 62 62     100%     29.89        
Jan 22 17:15 Calm 10 Cloudy SCT008 BKN046 OVC060 62 62     100%     29.88        
Jan 22 16:55 Calm 10 Cloudy BKN046 OVC060 62 62     100%     29.87        
Jan 22 16:35 SE 3 10 Cloudy OVC048 63 63     100%     29.88        
Jan 22 16:15 SE 7 10 Cloudy OVC050 63 63     100%     29.88        
Jan 22 15:55 SSE 6 10 Cloudy OVC050 62 62     100%     29.88        
Jan 22 15:35 SSE 7 10 Cloudy SCT011 BKN060 OVC075 62 62     99%     29.88        
Jan 22 15:15 Calm 10 Cloudy SCT011 BKN070 OVC120 62 62     99%     29.87        
Jan 22 14:55 SSE 7 10 Cloudy SCT018 BKN080 OVC100 62 62     100%     29.88   0 0  
Jan 22 14:35 SSE 8 10 Light Rain SCT021 BKN080 OVC090 61 60     98%     29.89   0    
Jan 22 13:15 SSE 6 10 Cloudy OVC019 63 58     85%     29.94        
Jan 22 12:55 SSE 5 10 Cloudy OVC019 63 58     81%     29.94        
Jan 22 12:35 SSE 5 10 Cloudy OVC017 63 58     83%     29.95        
Jan 22 12:15 SSE 5 10 Cloudy OVC017 63 57     79%     29.96        
Jan 22 11:55 SSE 7 10 Cloudy OVC017 63 56     77%     29.98        
Jan 22 11:35 S 7 10 Cloudy BKN017 OVC036 63 55     75%     30        
Jan 22 11:15 SSE 8 10 Cloudy BKN017 OVC031 63 54     74%     30        
Jan 22 10:55 SSE 6 10 Cloudy BKN019 BKN023 OVC031 62 54     74%     30.03        
Jan 22 10:35 SSE 7 10 Cloudy BKN019 BKN023 OVC038 62 53     72%     30.03        
Jan 22 10:15 SSE 6 10 Cloudy BKN021 OVC026 61 52     71%     30.05        
Jan 22 09:55 S 8 10 Cloudy BKN021 BKN026 OVC037 60 51     71%     30.05        
Jan 22 09:35 SSE 10 10 Cloudy SCT025 OVC035 60 50     70%     30.05        
Jan 22 09:15 SSE 9 10 Cloudy SCT022 OVC033 60 50     71%     30.05        
Jan 22 08:55 S 9 10 Cloudy SCT022 OVC031 59 48     68%     30.05        
Jan 22 08:35 SSE 9 10 Cloudy BKN024 OVC033 59 48     66%     30.05        
Jan 22 08:15 S 9 10 Cloudy OVC026 59 49     70%     30.05        
Jan 22 07:55 SSE 10 10 Cloudy OVC028 58 48     69%     30.04        
Jan 22 07:35 SE 8 10 Cloudy OVC028 57 47     68%     30.03        
Jan 22 07:15 SSE 3 10 Partly Cloudy SCT030 55 45     70%     30.05        
Jan 22 06:55 E 3 10 Clear CLR 54 44     70%     30.05        
Jan 22 06:35 SE 3 10 Clear CLR 55 45     67%     30.06        
Jan 22 06:15 Calm 10 Clear CLR 55 44     66%     30.06        
Jan 22 05:55 Calm 10 Clear CLR 55 44     65%     30.06        
Jan 22 05:35 SE 5 10 Clear CLR 56 44     64%     30.04        
Jan 22 05:15 SE 3 10 Clear CLR 56 44     63%     30.04        
Jan 22 04:55 E 5 10 Clear CLR 56 44     63%     30.03        
Jan 22 04:35 SE 3 10 Clear CLR 57 44     61%     30.03        
Jan 22 04:15 SSE 8 10 Clear CLR 56 44     63%     30.04        
Notice The following observation data may not be complete
Jan 22 03:55 S 6 10 Clear CLR   44      %     30.06        
Jan 22 03:35 SSE 5 10 Clear CLR 57 45     64%     30.06        
Jan 22 03:15 SSE 5 10 Clear CLR 57 45     63%     30.07        
Jan 22 02:55 SE 3 10 Clear CLR 56 45     64%     30.07        
Jan 22 02:35 SE 3 10 Clear CLR 57 45     63%     30.06        
Jan 22 02:15 S 3 10 Clear CLR 58 45     62%     30.07        
Jan 22 01:55 SSE 3 10 Clear CLR 58 45     63%     30.07        
Jan 22 01:35 SSE 7 10 Clear CLR 58 45     64%     30.07        
Jan 22 01:15 SSE 6 10 Clear CLR 58 46     64%     30.07        
Jan 22 00:55 SSE 5 10 Clear CLR 58 46     64%     30.08        
Jan 22 00:35 SSE 3 10 Clear CLR 54 45     73%     30.08        
Jan 22 00:15 Calm 10 Clear CLR 49 45     86%     30.1        
Jan 21 23:55 SSE 3 10 Clear CLR 58 47     65%     30.1        
Jan 21 23:35 Calm 10 Clear CLR 55 46     72%     30.11        
Jan 21 23:15 Calm 10 Clear CLR 54 46     75%     30.12        
Jan 21 22:55 Calm 10 Clear CLR 48 45     88%     30.13        
Jan 21 22:35 Calm 10 Clear CLR 48 44     86%     30.13        
Jan 21 22:15 Calm 10 Clear CLR 49 45     87%     30.13        
Jan 21 21:35 Calm 10 Clear CLR 48 45     88%     30.14        
Jan 21 21:15 Calm 10 Clear CLR 46 44     91%     30.14        
Jan 21 20:55 Calm 10 Clear CLR 47 44     89%     30.13        
Jan 21 20:35 Calm 10 Clear CLR 50 45     84%     30.12        
Jan 21 20:15 Calm 10 Clear CLR 48 44     87%     30.14        
Jan 21 19:55 Calm 10 Clear CLR 48 44     88%     30.16        
Notice The following observation data may not be complete
Jan 21 19:35   10 Clear CLR          %              
Jan 21 19:15 Calm 10 Clear CLR 49 45     86%     30.15        
Jan 21 18:55 Calm 10 Clear CLR 51 45     82%     30.15        
Jan 21 18:35 Calm 10 Clear CLR 53 46     77%     30.15        
Jan 21 18:15 Calm 10 Clear CLR 53 46     76%     30.15        
Jan 21 17:55 Calm 10 Clear CLR 57 46     67%     30.15        
Jan 21 17:35 Calm 10 Clear CLR 63 47     57%     30.15        
Jan 21 17:15 Calm 10 Clear CLR 64 47     53%     30.15        
Jan 21 16:55 SE 5 10 Clear CLR 67 47     49%     30.15        
Jan 21 16:35 SSE 9 10 Clear CLR 68 47     47%     30.15        
Jan 21 16:15 SSE 6 10 Clear CLR 70 47     45%     30.14        
Jan 21 15:55 SSE 6 10 Clear CLR 71 47     44%   70 30.15        
Jan 21 15:35 SSE 6 10 Clear CLR 72 48     43%   70 30.15        
Jan 21 15:15 SE 8 10 Clear CLR 72 47     42%   70 30.15        
Jan 21 14:55 SSE 5 10 Clear CLR 72 47     42%   70 30.15        
Jan 21 14:35 S 6 10 Clear CLR 72 47     42%   71 30.15        
Jan 21 14:15 S 6 10 Clear CLR 72 47     42%   71 30.15        
Jan 21 13:55 SSE 8 10 Clear CLR 72 47     41%   71 30.15        
Jan 21 13:35 ESE 7 10 Clear CLR 71 47     42%   70 30.16        
Jan 21 13:15 ESE 9 10 Clear CLR 71 47     43%   70 30.17        
Jan 21 12:55 S 6 10 Clear CLR 71 47     43%   69 30.18        
Jan 21 12:35 SSE 7 10 Clear CLR 69 47     45%     30.2        
Jan 21 12:15 S 6 10 Clear CLR 69 47     45%     30.21        
Jan 21 11:55 S 6 10 Clear CLR 68 47     46%     30.22        
Notice The following observation data may not be complete
Jan 21 11:35   10 Clear CLR          %              
Jan 21 11:15 SW 5 10 Clear CLR 66 47     50%     30.26        
Jan 21 10:55 Calm 10 Clear CLR 65 46     51%     30.27        
Jan 21 10:35 SSW 5 10 Clear CLR 63 46     53%     30.28        
Jan 21 10:15 Calm 10 Clear CLR 61 46     57%     30.29        
Jan 21 09:55 Calm 10 Clear CLR 59 45     61%     30.29        
Jan 21 09:35 Calm 10 Clear CLR 55 44     66%     30.28        
Jan 21 09:15 Calm 10 Clear CLR 53 43     69%     30.29        
Jan 21 08:55 Calm 10 Clear CLR 49 42     77%     30.29        
Jan 21 08:35 Calm 10 Clear CLR 46 42     85%     30.28        
Jan 21 08:15 Calm 10 Clear CLR 43 41     93%     30.28        
Jan 21 07:55 Calm 10 Clear CLR 40 40     99%     30.27        
Jan 21 07:35 Calm 10 Clear CLR 36 36     100%     30.26        
Jan 21 07:15 Calm 10 Clear CLR 33 33     100%     30.26        
Jan 21 06:55 Calm 10 Clear CLR 33 33     100%     30.25        
Jan 21 06:35 Calm 10 Clear CLR 33 33     100%     30.25        
Jan 21 06:15 Calm 10 Clear CLR 35 35     100%     30.24        
Jan 21 05:55 Calm 10 Clear CLR 35 35     100%     30.24        
Jan 21 05:35 Calm 10 Clear CLR 34 34     100%     30.24        
Jan 21 05:15 Calm 10 Clear CLR 34 34     100%     30.24        
Jan 21 04:55 Calm 10 Clear CLR 34 34     100%     30.23        
Jan 21 04:35 Calm 10 Clear CLR 35 35     100%     30.23        
Jan 21 04:15 Calm 10 Clear CLR 36 36     100%     30.23        
Jan 21 03:55 Calm 10 Clear CLR 35 35     100%     30.23        
Jan 21 03:35 Calm 10 Clear CLR 36 36     99%     30.23        
Jan 21 03:15 Calm 10 Clear CLR 35 35     100%     30.23        
Jan 21 02:55 Calm 10 Clear CLR 35 35     100%     30.23        
Jan 21 02:35 Calm 10 Clear CLR 34 34     100%     30.23        
Jan 21 02:15 Calm 10 Clear CLR 36 36     100%     30.23        
Jan 21 01:55 Calm 10 Clear CLR 35 35     100%     30.23        
Jan 21 01:35 Calm 10 Clear CLR 36 36     100%     30.23        
Jan 21 01:15 Calm 10 Clear CLR 36 36     99%     30.23        
Jan 21 00:55 Calm 10 Clear CLR 37 37     99%     30.23        
Jan 21 00:35 Calm 10 Clear CLR 39 39     99%     30.23        
Jan 21 00:15 Calm 10 Clear CLR 37 37     98%     30.24        
Jan 20 23:55 Calm 10 Clear CLR 37 37     99%     30.24        
Jan 20 23:35 Calm 10 Clear CLR 37 37     98%     30.24        
Jan 20 23:15 Calm 10 Clear CLR 37 37     100%     30.24        
Jan 20 22:55 Calm 10 Clear CLR 37 36     99%     30.25        
Jan 20 22:35 Calm 10 Clear CLR 38 37     99%     30.25        
Jan 20 22:15 Calm 10 Clear CLR 39 37     93%     30.25        
Jan 20 21:55 Calm 10 Clear CLR 38 36     92%     30.25        
Jan 20 21:35 Calm 10 Clear CLR 41 38     89%     30.26        
Jan 20 21:15 Calm 10 Clear CLR 41 38     88%     30.26        
Jan 20 20:55 Calm 10 Partly Cloudy SCT080 41 38     89%     30.26        
Jan 20 20:35 Calm 10 Partly Cloudy SCT080 41 38     89%     30.27        
Jan 20 20:15 Calm 10 Clear CLR 42 38     86%     30.27        
Jan 20 19:55 Calm 10 Clear CLR 43 39     83%     30.26        
Jan 20 19:35 Calm 10 Clear CLR 42 38     88%     30.26        
Jan 20 19:15 Calm 10 Clear CLR 43 39     84%     30.26        
Jan 20 18:55 Calm 10 Clear CLR 45 40     80%     30.26        
Jan 20 18:35 Calm 10 Clear CLR 47 40     78%     30.25        
Jan 20 18:15 Calm 10 Clear CLR 48 40     74%     30.25        
Jan 20 17:55 Calm 10 Clear CLR 51 40     65%     30.24        
Jan 20 17:35 Calm 10 Clear CLR 54 40     59%     30.24        
Jan 20 17:15 Calm 10 Clear CLR 57 40     53%     30.23        
Jan 20 16:55 Calm 10 Clear CLR 60 40     49%     30.23        
Jan 20 16:35 Calm 10 Clear CLR 61 40     46%     30.23        
Jan 20 16:15 SSW 5 10 Clear CLR 62 40     44%     30.23        
Jan 20 15:55 SW 5 10 Clear CLR 63 40     43%     30.23        
Jan 20 15:35 SSW 8 10 Clear CLR 63 40     43%     30.23        
Jan 20 15:15 WSW 6 10 Clear CLR 62 40     44%     30.23        
Jan 20 14:55 SW 9 10 Clear CLR 64 40     41%     30.23        
Jan 20 14:35 SSW 7 10 Clear CLR 64 40     40%     30.23        
Jan 20 14:15 W 7 10 Clear CLR 64 39     40%     30.23        
Jan 20 13:55 W 10 10 Clear CLR 63 38     40%     30.24        
Jan 20 13:35 WSW 7 10 Clear CLR 62 38     40%     30.25        
Jan 20 13:15 W 6 10 Clear CLR 63 38     39%     30.25        
Jan 20 12:55 WSW 7 10 Clear CLR 63 38     39%     30.26        
Notice The following observation data may not be complete
Jan 20 12:35   10 Clear CLR          %              
Jan 20 12:15 S 6 10 Clear CLR 61 36     39%     30.27        
Jan 20 11:55 SSW 7 10 Clear CLR 61 35     39%     30.28        
Jun 12 04:15 Calm 10 Clear CLR 72 72     100%   74 30.14        
Jun 12 03:55 Calm 10 Clear CLR 73 73     100%   75 30.14        
Jun 11 21:55 Calm 10 Clear   79 71     79%   80 30.15        
Jun 11 20:55 SSE 5 10 Clear   80 73     79%   84 30.12        
Jun 11 17:15 S 6 10 Partly Cloudy SCT045 90 72     54%   98 30.09        
Jun 11 15:15 SE 8 10 Partly Cloudy SCT045 89 71     56%   96 30.12        
Jun 11 09:55 S 5 10 Mostly Cloudy BKN020 BKN085 83 74     74%   89 30.17        
Jun 11 09:15 SE 7 10 Partly Cloudy SCT016 SCT110 81 74     77%   87 30.17        
Notice The following observation data may not be complete
Jun 11 02:35   10 Clear CLR          %              
Jun 11 02:15 Calm 10 Clear   66 66     100%     30.09        
Jun 11 00:15 Calm 10 Clear CLR 68 68     100%     30.11        
Jun 10 18:35 SSE 3 10 Clear   83 65     54%   85 30.05        
Jun 10 16:35 SE 5 10 Clear CLR 88 62     42%   88 30.05        
Jun 10 13:35 SSE 8 10 Partly Cloudy SCT065 SCT075 87 64     47%   89 30.09        
Jun 10 12:55 SSE 3 10 Mostly Cloudy SCT060 BKN075 87 63     44%   88 30.1        
Jun 10 11:35 S 5 10 Partly Cloudy SCT065 87 61     42%   87 30.11        
Jun 10 09:15 Calm 10 Partly Cloudy SCT080 SCT100 80 69     68%   83 30.1        
Jun 10 05:15 Calm 10 Mostly Cloudy BKN080 BKN095 63 63     100%     30.03        
Jun 10 03:15 Calm 10 Partly Cloudy SCT060 SCT070 64 64     100%     30.01        
Jun 10 02:35 Calm 10 Partly Cloudy SCT060 64 64     100%     30.01        
Jun 09 20:35 Calm 10 Clear CLR 72 67     86%   73 29.96        
Jun 09 05:35 Calm 10 Partly Cloudy SCT060 60 60     100%     29.95        
Jun 08 18:35 Calm 10 Partly Cloudy SCT110 79 62     56%   80 29.86        
Jun 08 02:15 Calm 10 Clear CLR 61 61     100%     29.87        
Jun 08 01:55 Calm 10 Clear CLR 62 61     97%     29.87        
Jun 07 17:35 NNE 5 10 Clear CLR 82 61     49%   83 29.82        
Jun 07 11:35 NE 8 10 Clear   79 68     69%   82 29.82        
Jun 07 09:35 NE 7 10 Clear CLR 74 65     72%   75 29.82        
Jun 06 10:55 Calm 10 Light Drizzle SCT005 BKN049 OVC055 72 72     100%   74 29.82   0    
Notice The following observation data may not be complete
Jun 06 05:55   10 Cloudy OVC005          %              
Jun 06 04:55 Calm 10 Cloudy BKN005 BKN055 OVC070 72 72     100%   74 29.8        
Jun 06 03:35 Calm 10 Light Rain SCT037 SCT048 SCT070 72 72     100%   74 29.8        
Jun 06 01:55 Calm 10 Cloudy SCT035 BKN042 OVC065 72 72     100%   74 29.81        
Jun 05 15:55 ENE 5 7 Rain SCT005 BKN048 OVC100 74 74     100%   76 29.81   0 1